Location: Makakahi
(40.6833°S, 175.6000°E)
Time: 18:50:09
(UTC+00:00)

FENGYUN 1C DEB - Pass Details

Date: 16 February 2026
Orbit: 839 x 906 km, 98.9° (Epoch: 9 March)

Event Time Altitude Azimuth Distance (km) Brightness Sun altitude
Rises 10:24:11 0° 180° (S) 3,452 ? -29.4°
Reaches altitude 10° 10:27:02 10° 194° (SSW) 2,518 ? -29.7°
Maximum altitude 10:31:13 22° 243° (WSW) 1,802 ? -30.2°
Drops below altitude 10° 10:35:26 10° 292° (WNW) 2,528 ? -30.6°
Sets 10:38:19 0° 306° (NW) 3,470 ? -30.9°
Enters shadow 10:38:20 - 306° (NW) 3,476 ? -30.9°
